Regional Weather Roundup
Issued by NWS

Home | Current Version | Previous Version | Graphics & Text | Print | Product List | Glossary On
Versions: 1 2 3 4 5 6 7 8 9 10 11 12 13 14 15 16 17 18 19 20 21 22 23 24 25 26 27 28 29 30 31 32 33 34 35 36 37 38 39 40 41 42 43 44 45 46 47 48 49 50
000
ASUS43 KMKX 311311
RWRWI

WISCONSIN REGIONAL WEATHER ROUNDUP
NATIONAL WEATHER SERVICE MILWAUKEE/SULLIVAN WI
800 AM CDT MON AUG 31 2015

NOTE: "FAIR" INDICATES FEW OR NO CLOUDS BELOW 12,000 FEET WITH NO
SIGNIFICANT WEATHER AND/OR OBSTRUCTIONS TO VISIBILITY.

WIZ001-002-006>008-014>016-023>028-311400-
NORTHWEST WISCONSIN

CITY           SKY/WX    TMP DP  RH WIND       PRES   REMARKS
SUPERIOR ARPT  SUNNY     62  62 100 CALM      29.89R FOG
ASHLAND        SUNNY     65  64  97 S7        29.92S
HAYWARD        CLOUDY    66  63  90 S10       29.97R
SIREN          MOSUNNY   65  64  97 SW3       29.94R FOG
CUMBERLAND     FOG       63  63 100 S6        29.98R VSB 1
RICE LAKE      FOG       65  63  96 S8        30.00R VSB 3/4
CHETEK         FOG      N/A N/A N/A SE6       29.99S VSB 1/2
LADYSMITH      FOG       64  63  97 S6        30.01S VSB 3/4
EAU CLAIRE     CLOUDY    64  63  96 S3        29.99R FOG
MENOMONIE      FOG       65  64  99 SE3       29.99R VSB 1/2
NEW RICHMOND   CLOUDY    66  66 100 S8        29.96F FOG
OSCEOLA        CLOUDY    66  66 100 S7        29.97S FOG
$$

WIZ003>005-009-010-017-018-311400-
NORTH CENTRAL WISCONSIN

CITY           SKY/WX    TMP DP  RH WIND       PRES   REMARKS
MANITOWISH WTR CLOUDY    64  63  99 SW6       30.00S
ARBOR VITAE    CLOUDY    64  63  94 SW6       30.00F
WOODRUFF       CLOUDY    64  63  94 SW6       30.00F
RHINELANDER    CLOUDY    65  62  90 SW7       30.02F FOG
EAGLE RIVER    CLOUDY    64  63  96 SW5       30.01S
LAND O LAKES   CLOUDY    64  62  91 SW5       30.01S
PHILLIPS       CLOUDY    63  63 100 SW5       30.00S FOG
TOMAHAWK       FOG       63  62  97 CALM      30.03S VSB 1/2
MEDFORD        CLOUDY    62  62 100 S7        30.02S FOG
MERRILL        CLOUDY    63  63 100 SW3       30.04R FOG
$$

WIZ029-030-035-036-043>047-311400-
CENTRAL WISCONSIN

CITY           SKY/WX    TMP DP  RH WIND       PRES   REMARKS
WAUSAU         CLOUDY    62  62 100 S5        30.02R FOG
MOSINEE        FOG       61  61 100 S5        30.04S VSB 1/4
MARSHFIELD     FOG       62  59  90 S5        30.03S VSB 1/4
STEVENS POINT  CLOUDY    60  60 100 SW5       30.04S FOG
WAUPACA        MOSUNNY   64  63  96 CALM      30.04R FOG
WAUTOMA        CLOUDY    63  63 100 CALM      30.05S FOG
WISC RAPIDS    CLOUDY    63  61  93 SW5       30.05S FOG
CAMP DOUGLAS   CLOUDY    63  63 100 S6        30.03S FOG
$$

WIZ011>013-019>022-031-037>040-048>050-311400-
NORTHEAST WISCONSIN

CITY           SKY/WX    TMP DP  RH WIND       PRES   REMARKS
ANTIGO         FOG       62  62 100 W7        30.04R VSB 1/4
SHAWANO        FOG       64  63  96 SW5       30.03R VSB 1/2
OCONTO         CLOUDY    62  62 100 W6        30.01S
STURGEON BAY   SUNNY     64  63  94 W6        30.03S
GREEN BAY      FOG       64  63  96 SW7       30.03R VSB 1/4
MANITOWOC      SUNNY     61  60  97 MISG      30.04R FOG
APPLETON       CLOUDY    63  63 100 S7        30.03R FOG
CLINTONVILLE   FOG       61  61 100 SW7       30.03S VSB 1/4
OSHKOSH        CLOUDY    63  61  93 S6        30.04S FOG
$$

WIZ032>034-041-042-053>061-311400-
SOUTHWEST WISCONSIN

CITY           SKY/WX    TMP DP  RH WIND       PRES   REMARKS
LA CROSSE      CLOUDY    66  64  93 S7        30.01S FOG
SPARTA         CLOUDY    62  60  94 CALM      30.03S
VIROQUA          N/A     64  64 100 CALM      30.05S VSB 1/2
BOSCOBEL       FOG       61  60  97 CALM      30.04S VSB<1/4
PRAIRIE DU CHI MOSUNNY   60  59  96 CALM      30.03F FOG
PLATTEVILLE    SUNNY     63  63 100 SE5       30.06R
$$

WIZ056-057-062-063-064-067-068-311400-
SOUTH CENTRAL WISCONSIN

CITY           SKY/WX    TMP DP  RH WIND       PRES   REMARKS
REEDSBURG      CLOUDY    64  63  99 CALM      30.05R
BARABOO/DELLS  CLOUDY    65  64  95 SW3       30.05S
LONE ROCK      CLOUDY    62  61  96 CALM      30.06R
MINERAL POINT  FOG       61  61 100 SE5       30.07R VSB<1/4
MADISON        PTSUNNY   63  61  93 SE3       30.06S
MIDDLETON      CLOUDY    65  65 100 CALM      30.06F
WATERTOWN      FOG       58  58 100 CALM      30.07R VSB 1/2
MONROE         SUNNY     63  63 100 S6        30.07S FOG
JANESVILLE     FOG       61  61 100 CALM      30.07R VSB 1/8
$$

WIZ051-052-058>065-066-070>072-311400-
SOUTHEAST WISCONSIN

CITY           SKY/WX    TMP DP  RH WIND       PRES   REMARKS
MILWAUKEE      FOG       62  62 100 SW3       30.06S VSB 1/2
WAUKESHA       FOG       59  59 100 CALM      30.08R VSB 1/4
MILWAUKEE/TIMM SUNNY     61  59  94 CALM      30.07R FOG
RACINE         SUNNY     63  61  93 W3        30.08S FOG
BURLINGTON     FOG       58  58  99 CALM      30.07S VSB 1/4
KENOSHA        MOSUNNY   63  62  97 CALM      30.08R FOG
FOND DU LAC    CLOUDY    63  62  97 SW3       30.05S FOG
SHEBOYGAN      SUNNY     62  62 100 S3        30.05R FOG
WEST BEND      MOSUNNY   59  59 100 CALM      30.06R FOG
JUNEAU         FOG       59  58  99 CALM      30.08R VSB<1/4
$$

LSZ147-162-311400-
LAKE SUPERIOR

STATION/POSITION TIME  TEMP    WIND        PRES    WAVE
                       AIR SEA DIR/SP/G            HT/PER
                 (UTC) (F)     (DEG/KT/KT) (MB)    (FT/S)
W MID LAKE BUOY  1250   58 54  200/  6/  6 1012.5S   1
DEVILS ISLAND    1300   65     180/  7/ 10 1012.2S
PORT WING        1200   66     180/  4/ 10 1012.2
SAXON HARBOR     1200   65      CALM  /  5 1012.9R
$$

LMZ867-665-643>646-311400-
LAKE MICHIGAN

STATION/POSITION TIME  TEMP    WIND        PRES    WAVE
                       AIR SEA DIR/SP/G            HT/PER
                 (UTC) (F)     (DEG/KT/KT) (MB)    (FT/S)
CHAMBERS ISLAND  1200   62     210/  7/ 11 1015.6R
S GREEN BAY BUOY 1300   63 63  240/ 10/ 12 1017.6R
N MID LAKE BUOY  1250   64 65  210/ 10/ 12 1015.4R   2/ 4
NORTHPORT PIER   1200   66      CALM  /  3 1015.6R
SHEBOYGAN LAKESH 1300   60     180/  7/  7 1017.7R
PORT WASHINGTON  1200   58     240/  1/  3 1018.3R
ATWATER BUOY     1300   56 49   CALM  /  2 1019.4R
MILWAUKEE LAKESH 1210   62     210/  5/  5   N/A
S MID LAKE BUOY  1250   68 68  220/  4/  4 1017.8R   0
KENOSHA   LAKESH 1300   59     190/  2/  4 1018.3R
$$

TC  - TEMPERATURE IN CELSIUS
VSB - VISIBILITY IN STATUTE MILES
WCI - WIND CHILL INDEX
HX  - HEAT INDEX




USA.gov is the U.S. government's official web portal to all federal, state and local government web resources and services.